Meknes, Morocco

10:34 PM WET on January 19, 2017 (GMT +0000)
Meknes

Weather History for GMFM - December, 2012

Change the Weather History Date:

Wednesday, December 19, 2012

  Actual Average (GMFF) Record (GMFF)
Temperature  
Mean Temperature 59 °F -  
Max Temperature 72 °F 60 °F 80 °F (2015)
Min Temperature 46 °F 41 °F 32 °F (1999)
Degree Days  
Heating Degree Days 6    
Growing Degree Days 9 (Base 50)    
Moisture  
Dew Point 37 °F    
Average Humidity 45    
Maximum Humidity 77    
Minimum Humidity 14    
Precipitation  
Precipitation 0.00 in 0.11 in - ()
Sea Level Pressure  
Sea Level Pressure 30.21 in    
Wind  
Wind Speed 5 mph ()    
Max Wind Speed 9 mph    
Max Gust Speed -    
Visibility 6.0 miles    
Events      
Averages and records for this station are not official NWS values.
T = Trace of Precipitation, MM = Missing Value Source: Averaged Metar Reports

Daily Weather History Graph

Daily Weather History Graph

Search for Another Location

Airport or City:

Trip Planner

Search our weather history database for the weather conditions in past years. The results will help you decide how hot, cold, wet, or windy it might be!

Date:

Astronomy

Dec. 19, 2012 Rise Set
Actual Time 7:22 AM WET 5:16 PM WET
Civil Twilight 6:54 AM WET 5:44 PM WET
Nautical Twilight 6:23 AM WET 6:15 PM WET
Astronomical Twilight 5:52 AM WET 6:45 PM WET
Moon 11:42 AM WET No Moon Set
Length of Visible Light 10h 49m
Length of Day
9h 54m
Waxing Crescent, 42% of the Moon is Illuminated
Dec 19
Waxing Crescent
Dec 20
First Quarter
Dec 28
Full
Jan 5
Last Quarter
Jan 11
New

Hourly Weather History & Observations

Time (WET) Temp. Dew Point Humidity Pressure Visibility Wind Dir Wind Speed Gust Speed Precip Events Conditions
12:00 AM 54 °F 46 °F 68% 30.23 in 6 mi South 6.9 mph - -  
12:00 AM 53.6 °F 46.4 °F 77% 30.24 in - South 6.9 mph - N/A   Clear
1:00 AM 50.0 °F 42.8 °F 76% 30.24 in - South 3.5 mph - N/A   Clear
2:00 AM 53.6 °F 42.8 °F 67% 30.21 in - South 3.5 mph - N/A   Clear
3:00 AM 51 °F 33 °F 39% 30.19 in 6 mi South 6.9 mph - -  
3:00 AM 51.8 °F 33.8 °F 50% 30.18 in - South 6.9 mph - N/A   Clear
4:00 AM 50.0 °F 42.8 °F 76% 30.24 in - South 3.5 mph - N/A   Clear
5:00 AM - - N/A% 30.18 in - South 8.1 mph - N/A   Clear
6:00 AM 52 °F 30 °F 31% 30.18 in 6 mi South 6.9 mph - -  
6:00 AM 51.8 °F 30.2 °F 44% 30.18 in - South 6.9 mph - N/A   Clear
7:00 AM 51.8 °F 30.2 °F 44% 30.18 in - South 8.1 mph - N/A   Clear
8:00 AM 51.8 °F 30.2 °F 44% 30.18 in - South 8.1 mph - N/A   Clear
9:00 AM 57 °F 34 °F 30% 30.21 in 6 mi South 5.8 mph - -   Clear
9:00 AM 57.2 °F 33.8 °F 41% 30.21 in - South 5.8 mph - N/A   Clear
10:00 AM 62.6 °F 33.8 °F 34% 30.24 in - SSW 3.5 mph - N/A   Clear
11:00 AM 66.2 °F 30.2 °F 26% 30.24 in - WSW 4.6 mph - N/A   Clear
12:00 PM 68 °F 30 °F 14% 30.18 in 6 mi West 8.1 mph - -   Clear
12:00 PM 68.0 °F 30.2 °F 24% 30.24 in - West 8.1 mph - N/A   Clear
1:00 PM 69.8 °F 32.0 °F 25% 30.21 in - West 6.9 mph - N/A   Clear
2:00 PM 69.8 °F 35.6 °F 28% 30.21 in - WNW 3.5 mph - N/A   Clear
3:00 PM 71 °F 37 °F 18% 30.14 in 6 mi West 4.6 mph - -   Clear
3:00 PM 71.6 °F 37.4 °F 29% 30.21 in - West 4.6 mph - N/A   Clear
4:00 PM 68.0 °F 37.4 °F 33% 30.21 in - WSW 6.9 mph - N/A   Clear
5:00 PM 64.4 °F 41.0 °F 42% 30.21 in - West 5.8 mph - N/A   Clear
6:00 PM 61 °F 43 °F 41% 30.20 in 6 mi Calm Calm - -   Clear
6:00 PM 60.8 °F 42.8 °F 52% 30.24 in - Calm Calm - N/A   Clear
7:00 PM 59.0 °F 44.6 °F 59% 30.24 in - WSW 2.3 mph - N/A   Clear
8:00 PM 53.6 °F 42.8 °F 67% 30.27 in - SSE 4.6 mph - N/A   Clear
9:00 PM 54 °F 40 °F 49% 30.25 in 6 mi SE 6.9 mph - -   Clear
9:00 PM 53.6 °F 41.0 °F 62% 30.24 in - SSE 6.9 mph - N/A   Clear
10:00 PM 57.2 °F 39.2 °F 51% 30.24 in - South 6.9 mph - N/A   Clear
11:00 PM 57.2 °F 35.6 °F 44% 30.24 in - South 9.2 mph - N/A   Clear